Change the Weather History Date:

Friday, September 20, 2013

  Actual Average Record
Temperature  
Mean Temperature 65 °F 63 °F  
Max Temperature 74 °F 74 °F 89 °F (1998)
Min Temperature 56 °F 53 °F 40 °F (2006)
Degree Days  
Heating Degree Days 0 4  
Month to date heating degree days 28 36  
Since 1 July heating degree days 39 44  
Cooling Degree Days 0 2  
Month to date cooling degree days 130 77  
Year to date cooling degree days 908 830  
Growing Degree Days 14 (Base 50)    
Moisture  
Dew Point 60 °F    
Average Humidity 79    
Maximum Humidity 96    
Minimum Humidity 58    
Precipitation  
Precipitation 0.04 in 0.11 in 0.96 in (2009)
Month to date precipitation 1.17 2.18  
Year to date precipitation 30.49 30.00  
Sea Level Pressure  
Sea Level Pressure 29.83 in    
Wind  
Wind Speed 9 mph (West)    
Max Wind Speed 17 mph    
Max Gust Speed 23 mph    
Visibility 10 miles    
Events Rain , Thunderstorm    
T = Trace of Precipitation, MM = Missing Value Source: NWS Daily Summary

Daily Weather History Graph

Daily Weather History Graph

Search for Another Location

Airport or City:

Trip Planner

Search our weather history database for the weather conditions in past years. The results will help you decide how hot, cold, wet, or windy it might be!

Date:

Astronomy

Sep. 20, 2013 Rise Set
Actual Time 6:38 AM CDT 6:52 PM CDT
Civil Twilight 6:10 AM CDT 7:20 PM CDT
Nautical Twilight 5:37 AM CDT 7:52 PM CDT
Astronomical Twilight 5:04 AM CDT 8:25 PM CDT
Moon 7:24 PM CDT (9/20) 7:54 AM CDT (9/20)
Length of Visible Light 13h 10m
Length of Day
12h 14m
Full, 98% of the Moon is Illuminated
Sep 20
Full
Sep 26
Last Quarter
Oct 4
New
Oct 11
First Quarter
Oct 18
Full

Hourly Weather History & Observations

Time (CDT) Temp. Dew Point Humidity Pressure Visibility Wind Dir Wind Speed Gust Speed Precip Events Conditions
12:15 AM 73.6 °F 63.1 °F 70% 29.85 in 10.0 mi WSW 8.1 mph - N/A   Mostly Cloudy
12:35 AM 71.1 °F 63.9 °F 78% 29.85 in 7.0 mi West 11.5 mph 17.3 mph N/A Rain , Thunderstorm Light Thunderstorms and Rain
12:55 AM 69.3 °F 65.1 °F 87% 29.86 in 10.0 mi West 12.7 mph 19.6 mph N/A Rain , Thunderstorm Rain
1:15 AM 68.5 °F 65.3 °F 89% 29.86 in 10.0 mi West 11.5 mph - N/A Rain Light Rain
1:35 AM 68.4 °F 64.8 °F 88% 29.85 in 10.0 mi West 6.9 mph - N/A   Overcast
1:55 AM 68.0 °F 64.9 °F 90% 29.84 in 10.0 mi WSW 5.8 mph - N/A   Scattered Clouds
2:15 AM 67.6 °F 65.1 °F 92% 29.81 in 10.0 mi SSW 3.5 mph - N/A   Clear
2:35 AM 67.1 °F 65.3 °F 94% 29.79 in 10.0 mi SSE 6.9 mph - N/A   Clear
2:55 AM 67.1 °F 65.3 °F 94% 29.78 in 10.0 mi SSE 8.1 mph - N/A   Clear
3:15 AM 66.4 °F 65.1 °F 96% 29.81 in 10.0 mi SW 6.9 mph - N/A   Clear
3:35 AM 66.6 °F 65.3 °F 96% 29.81 in 10.0 mi WSW 8.1 mph - N/A   Scattered Clouds
3:55 AM 67.1 °F 65.3 °F 94% 29.82 in 10.0 mi WSW 9.2 mph - N/A   Overcast
4:15 AM 66.7 °F 65.1 °F 95% 29.83 in 10.0 mi SW 8.1 mph - N/A   Mostly Cloudy
4:35 AM 67.1 °F 65.3 °F 94% 29.83 in 10.0 mi SW 8.1 mph - N/A   Overcast
4:55 AM 66.6 °F 64.9 °F 95% 29.83 in 10.0 mi SW 6.9 mph - N/A   Overcast
5:15 AM 66.2 °F 64.9 °F 96% 29.83 in 10.0 mi WSW 8.1 mph - N/A   Overcast
5:35 AM 66.4 °F 64.9 °F 95% 29.84 in 10.0 mi WSW 10.4 mph - N/A   Overcast
5:55 AM 66.2 °F 64.6 °F 94% 29.84 in 10.0 mi SW 8.1 mph - N/A   Overcast
6:15 AM 66.2 °F 64.8 °F 95% 29.84 in 10.0 mi SW 8.1 mph - N/A   Overcast
6:35 AM 66.6 °F 64.6 °F 93% 29.85 in 10.0 mi SW 10.4 mph - N/A   Overcast
6:55 AM 67.1 °F 64.6 °F 92% 29.85 in 10.0 mi WSW 10.4 mph - N/A   Overcast
7:15 AM 67.1 °F 64.6 °F 92% 29.85 in 10.0 mi WSW 9.2 mph - N/A   Overcast
7:35 AM 67.3 °F 64.8 °F 92% 29.85 in 10.0 mi WSW 10.4 mph - N/A   Overcast
7:55 AM 67.3 °F 64.9 °F 92% 29.86 in 10.0 mi WSW 8.1 mph - N/A   Overcast
8:15 AM 67.3 °F 64.9 °F 92% 29.85 in 10.0 mi WSW 10.4 mph 16.1 mph N/A   Overcast
8:35 AM 67.8 °F 65.3 °F 92% 29.85 in 10.0 mi WSW 8.1 mph - N/A   Overcast
8:55 AM 68.0 °F 65.3 °F 91% 29.84 in 10.0 mi West 8.1 mph - N/A   Overcast
9:15 AM 68.7 °F 65.5 °F 89% 29.84 in 10.0 mi West 10.4 mph - N/A   Overcast
9:35 AM 69.8 °F 65.7 °F 87% 29.84 in 10.0 mi West 11.5 mph - N/A   Overcast
9:55 AM 69.3 °F 65.5 °F 88% 29.85 in 10.0 mi West 9.2 mph - N/A   Overcast
10:15 AM 69.8 °F 65.7 °F 87% 29.85 in 7.0 mi WSW 10.4 mph - N/A   Overcast
10:35 AM 70.0 °F 65.5 °F 86% 29.85 in 10.0 mi WSW 9.2 mph - N/A   Overcast
10:55 AM 70.5 °F 65.5 °F 84% 29.85 in 10.0 mi West 10.4 mph 16.1 mph N/A   Overcast
11:15 AM 71.6 °F 64.4 °F 78% 29.84 in 10.0 mi West 10.4 mph - N/A   Mostly Cloudy
11:35 AM 72.7 °F 64.0 °F 74% 29.84 in 10.0 mi West 12.7 mph 16.1 mph N/A   Overcast
11:55 AM 74.5 °F 63.5 °F 68% 29.83 in 10.0 mi West 10.4 mph - N/A   Mostly Cloudy
12:15 PM 74.3 °F 62.8 °F 67% 29.83 in 10.0 mi West 5.8 mph 9.2 mph N/A   Mostly Cloudy
12:35 PM 73.9 °F 61.7 °F 65% 29.83 in 10.0 mi West 9.2 mph - N/A   Mostly Cloudy
12:55 PM 74.3 °F 61.0 °F 63% 29.83 in 10.0 mi West 11.5 mph - N/A   Scattered Clouds
1:15 PM 73.9 °F 60.6 °F 63% 29.82 in 10.0 mi West 10.4 mph - N/A   Scattered Clouds
1:35 PM 73.8 °F 60.3 °F 63% 29.82 in 10.0 mi West 10.4 mph 17.3 mph N/A   Scattered Clouds
1:55 PM 73.6 °F 60.6 °F 64% 29.81 in 10.0 mi West 10.4 mph - N/A   Scattered Clouds
2:15 PM 73.4 °F 59.9 °F 63% 29.81 in 10.0 mi West 8.1 mph - N/A   Scattered Clouds
2:35 PM 73.0 °F 60.6 °F 65% 29.81 in 10.0 mi West 10.4 mph 17.3 mph N/A   Clear
2:55 PM 72.9 °F 59.4 °F 62% 29.81 in 10.0 mi West 11.5 mph 16.1 mph N/A   Clear
3:15 PM 72.7 °F 58.5 °F 61% 29.81 in 10.0 mi WSW 10.4 mph - N/A   Clear
3:35 PM 72.5 °F 57.4 °F 59% 29.81 in 10.0 mi West 15.0 mph - N/A   Clear
3:55 PM 71.6 °F 56.7 °F 59% 29.81 in 10.0 mi West 16.1 mph - N/A   Clear
4:15 PM 71.1 °F 56.5 °F 60% 29.81 in 10.0 mi West 15.0 mph 18.4 mph N/A   Clear
4:35 PM 70.7 °F 56.7 °F 61% 29.81 in 10.0 mi West 12.7 mph 18.4 mph N/A   Scattered Clouds
4:55 PM 69.4 °F 54.5 °F 59% 29.81 in 10.0 mi WNW 16.1 mph 19.6 mph N/A   Scattered Clouds
5:15 PM 68.4 °F 52.9 °F 58% 29.81 in 10.0 mi West 16.1 mph - N/A   Clear
5:35 PM 67.8 °F 53.2 °F 60% 29.81 in 10.0 mi West 9.2 mph - N/A   Clear
5:55 PM 67.3 °F 53.6 °F 61% 29.81 in 10.0 mi West 6.9 mph - N/A   Clear
6:15 PM 66.6 °F 54.0 °F 64% 29.81 in 10.0 mi West 9.2 mph - N/A   Clear
6:35 PM 66.0 °F 52.2 °F 61% 29.82 in 10.0 mi NW 17.3 mph 23.0 mph N/A   Scattered Clouds
6:55 PM 64.0 °F 50.5 °F 61% 29.83 in 10.0 mi WNW 15.0 mph 20.7 mph N/A   Scattered Clouds
7:15 PM 63.0 °F 49.8 °F 62% 29.84 in 10.0 mi WNW 13.8 mph 20.7 mph N/A   Clear
7:35 PM 62.1 °F 49.8 °F 64% 29.84 in 10.0 mi WNW 9.2 mph - N/A   Clear
7:55 PM 61.2 °F 49.8 °F 66% 29.84 in 10.0 mi WNW 8.1 mph - N/A   Clear
8:15 PM 60.3 °F 50.4 °F 70% 29.84 in 10.0 mi WNW 8.1 mph - N/A   Clear
8:35 PM 59.7 °F 50.4 °F 71% 29.84 in 10.0 mi WNW 8.1 mph - N/A   Clear
8:55 PM 59.0 °F 50.9 °F 74% 29.84 in 10.0 mi West 4.6 mph - N/A   Clear
9:15 PM 58.1 °F 50.9 °F 77% 29.84 in 10.0 mi WNW 5.8 mph - N/A   Clear
9:35 PM 57.4 °F 50.9 °F 79% 29.85 in 10.0 mi WNW 5.8 mph - N/A   Clear
9:55 PM 56.3 °F 50.9 °F 82% 29.85 in 10.0 mi WNW 4.6 mph - N/A   Clear
10:15 PM 55.6 °F 50.9 °F 84% 29.85 in 10.0 mi WNW 5.8 mph - N/A   Clear
10:35 PM 56.1 °F 50.9 °F 83% 29.85 in 10.0 mi WNW 6.9 mph - N/A   Clear
10:55 PM 56.5 °F 51.1 °F 82% 29.85 in 10.0 mi WNW 9.2 mph - N/A   Clear
11:15 PM 56.3 °F 51.1 °F 83% 29.85 in 10.0 mi WNW 5.8 mph - N/A   Clear
11:35 PM 55.6 °F 51.3 °F 85% 29.85 in 10.0 mi WNW 5.8 mph - N/A   Clear
11:55 PM 55.2 °F 51.3 °F 87% 29.85 in 10.0 mi WNW 5.8 mph - N/A   Clear